Terminal Aerodrome Forecast
Issued by NWS Wilmington, OH

Current Version | Previous Version | Graphics & Text | Print | Product List | Glossary On
Versions: 1 2 3 4 5 6 7 8 9 10 11 12 13 14 15 16 17 18 19 20 21
000
FTUS41 KILN 211541 AAA
TAFCVG
TAF AMD
KCVG 211541Z 2116/2218 21009KT P6SM SCT130 BKN250
     FM220000 16004KT P6SM SCT120 BKN250
     FM221300 18009KT P6SM BKN200=

USA.gov is the U.S. government's official web portal to all federal, state and local government web resources and services.